Location: Glenmont
(42.6048°N, 73.7696°W)
Time: 23:41:57
(UTC+00:00)

DMSP B5D1-3 - Pass Details

Date: 08 September 2024
Orbit: 761 x 775 km, 98.5° (Epoch: 14 October)

Event Time Altitude Azimuth Distance (km) Brightness Sun altitude
Rises 23:44:29 0° 15° (NNE) 3,234 7.7 -5.9°
Reaches altitude 10° 23:46:48 10° 17° (NNE) 2,303 7.0 -6.4°
Maximum altitude 23:51:53 76° 103° (ESE) 788 4.5 -7.3°
Drops below altitude 10° 23:56:55 10° 189° (S) 2,289 6.9 -8.2°
Sets 23:59:13 0° 191° (S) 3,212 7.7 -8.6°
